Hourly Weather Abbadia San Salvatore

Today, 28 September, Monday

Time Temperature Precipitation Wind Pressure Humidity
00:00 +6°C° 0.1 mm 1 mps 663 mmHg 92%
01:00 +6°C° 0 mm 1 mps 664 mmHg 92%
02:00 +6°C° 0 mm 1 mps 663 mmHg 92%
03:00 +5°C° 0 mm 1 mps 663 mmHg 91%
04:00 +5°C° 0 mm 1 mps 663 mmHg 91%
05:00 +5°C° 0 mm 1 mps 664 mmHg 91%
06:00 +5°C° 0 mm 1 mps 664 mmHg 90%
07:00 +6°C° 0 mm 1 mps 665 mmHg 92%
08:00 +7°C° 0.1 mm 1 mps 665 mmHg 86%
09:00 +8°C° 0.1 mm 2 mps 666 mmHg 80%
10:00 +10°C° 0.1 mm 2 mps 667 mmHg 75%
11:00 +10°C° 0.4 mm 2 mps 667 mmHg 73%
12:00 +10°C° 0.4 mm 2 mps 668 mmHg 71%
13:00 +12°C° 0 mm 2 mps 668 mmHg 71%
14:00 +12°C° 0.1 mm 2 mps 668 mmHg 70%
15:00 +12°C° 0.1 mm 1 mps 668 mmHg 69%
16:00 +12°C° 0.1 mm 1 mps 668 mmHg 67%
17:00 +10°C° 0.1 mm 1 mps 668 mmHg 73%
18:00 +9°C° 0.1 mm 1 mps 668 mmHg 79%
19:00 +7°C° 0.1 mm 1 mps 668 mmHg 84%
20:00 +7°C° 0 mm 1 mps 669 mmHg 85%
21:00 +7°C° 0 mm 1 mps 669 mmHg 85%
22:00 +7°C° 0 mm 1 mps 669 mmHg 86%
23:00 +5°C° 0 mm 0 mps 669 mmHg 87%

Tomorrow, 29 September, Tuesday

Time Temperature Precipitation Wind Pressure Humidity
00:00 +5°C° 0 mm 0 mps 670 mmHg 87%
01:00 +5°C° 0 mm 0 mps 670 mmHg 88%
02:00 +5°C° 0 mm 0 mps 670 mmHg 88%
03:00 +5°C° 0 mm 0 mps 670 mmHg 88%
04:00 +6°C° 0 mm 1 mps 670 mmHg 88%
05:00 +5°C° 0 mm 0 mps 671 mmHg 87%
06:00 +5°C° 0 mm 0 mps 671 mmHg 86%
07:00 +6°C° 0 mm 0 mps 671 mmHg 85%
08:00 +8°C° 0 mm 0 mps 672 mmHg 78%
09:00 +10°C° 0 mm 0 mps 673 mmHg 72%
10:00 +12°C° 0 mm 0 mps 674 mmHg 65%
11:00 +14°C° 0 mm 1 mps 674 mmHg 60%
12:00 +15°C° 0 mm 1 mps 675 mmHg 55%
13:00 +16°C° 0 mm 1 mps 675 mmHg 51%
14:00 +16°C° 0 mm 1 mps 675 mmHg 52%
15:00 +16°C° 0 mm 1 mps 674 mmHg 54%
16:00 +15°C° 0 mm 1 mps 674 mmHg 55%
17:00 +13°C° 0 mm 1 mps 673 mmHg 62%
18:00 +12°C° 0 mm 1 mps 673 mmHg 69%
19:00 +9°C° 0 mm 0 mps 673 mmHg 77%
20:00 +9°C° 0 mm 0 mps 673 mmHg 78%
21:00 +8°C° 0 mm 0 mps 673 mmHg 79%
22:00 +8°C° 0 mm 0 mps 673 mmHg 80%
23:00 +8°C° 0 mm 0 mps 672 mmHg 81%

Day after tomorrow, 30 September, Wednesday

Time Temperature Precipitation Wind Pressure Humidity
00:00 +8°C° 0 mm 0 mps 672 mmHg 82%
01:00 +8°C° 0 mm 0 mps 672 mmHg 83%
02:00 +7°C° 0 mm 0 mps 672 mmHg 84%
03:00 +7°C° 0 mm 0 mps 671 mmHg 85%
04:00 +7°C° 0 mm 0 mps 671 mmHg 86%
05:00 +7°C° 0 mm 0 mps 671 mmHg 85%
06:00 +7°C° 0 mm 0 mps 671 mmHg 85%
07:00 +7°C° 0 mm 0 mps 671 mmHg 84%
08:00 +9°C° 0 mm 0 mps 672 mmHg 76%
09:00 +11°C° 0 mm 0 mps 672 mmHg 68%
10:00 +14°C° 0 mm 0 mps 673 mmHg 61%
11:00 +15°C° 0 mm 0 mps 673 mmHg 57%
12:00 +16°C° 0 mm 1 mps 673 mmHg 53%
13:00 +18°C° 0 mm 1 mps 673 mmHg 49%
14:00 +18°C° 0 mm 1 mps 672 mmHg 51%
15:00 +16°C° 0 mm 1 mps 672 mmHg 52%
16:00 +16°C° 0 mm 1 mps 672 mmHg 54%
17:00 +14°C° 0 mm 1 mps 671 mmHg 63%
18:00 +12°C° 0 mm 1 mps 671 mmHg 71%
19:00 +11°C° 0 mm 1 mps 670 mmHg 80%
20:00 +10°C° 0 mm 1 mps 670 mmHg 82%
21:00 +9°C° 0 mm 0 mps 670 mmHg 84%
22:00 +9°C° 0 mm 0 mps 670 mmHg 86%
23:00 +8°C° 0 mm 0 mps 669 mmHg 87%

1 October, Thursday

Time Temperature Precipitation Wind Pressure Humidity
00:00 +8°C° 0 mm 0 mps 669 mmHg 88%
01:00 +8°C° 0 mm 0 mps 669 mmHg 90%
02:00 +8°C° 0 mm 0 mps 668 mmHg 90%
03:00 +7°C° 0 mm 0 mps 668 mmHg 91%
04:00 +7°C° 0 mm 0 mps 668 mmHg 92%
05:00 +7°C° 0 mm 0 mps 668 mmHg 92%
06:00 +8°C° 0 mm 0 mps 667 mmHg 91%
07:00 +8°C° 0 mm 0 mps 667 mmHg 91%
08:00 +10°C° 0 mm 0 mps 668 mmHg 82%
09:00 +12°C° 0 mm 0 mps 669 mmHg 73%
10:00 +15°C° 0 mm 1 mps 669 mmHg 64%
11:00 +16°C° 0 mm 1 mps 669 mmHg 62%
12:00 +16°C° 0 mm 1 mps 669 mmHg 59%
13:00 +17°C° 0 mm 2 mps 669 mmHg 56%
14:00 +16°C° 0 mm 2 mps 669 mmHg 58%
15:00 +16°C° 0 mm 2 mps 669 mmHg 60%
16:00 +16°C° 0 mm 3 mps 668 mmHg 63%
17:00 +14°C° 0 mm 2 mps 668 mmHg 71%
18:00 +12°C° 0 mm 1 mps 667 mmHg 79%
19:00 +11°C° 0 mm 1 mps 667 mmHg 87%
20:00 +10°C° 0 mm 1 mps 667 mmHg 89%
21:00 +10°C° 0 mm 1 mps 667 mmHg 90%
22:00 +10°C° 0 mm 1 mps 667 mmHg 92%
23:00 +9°C° 0 mm 1 mps 666 mmHg 92%

2 October, Friday

Time Temperature Precipitation Wind Pressure Humidity
00:00 +9°C° 0 mm 1 mps 666 mmHg 93%
01:00 +8°C° 0 mm 2 mps 665 mmHg 94%
02:00 +8°C° 0 mm 2 mps 665 mmHg 93%
03:00 +9°C° 0 mm 2 mps 665 mmHg 91%
04:00 +10°C° 0 mm 2 mps 665 mmHg 90%
05:00 +10°C° 0 mm 3 mps 665 mmHg 90%
06:00 +10°C° 0 mm 3 mps 665 mmHg 90%
07:00 +10°C° 0 mm 3 mps 665 mmHg 90%
08:00 +11°C° 0 mm 4 mps 665 mmHg 87%
09:00 +12°C° 0 mm 4 mps 665 mmHg 84%
10:00 +12°C° 0 mm 5 mps 665 mmHg 81%
11:00 +13°C° 0.1 mm 5 mps 665 mmHg 79%
12:00 +13°C° 0.1 mm 6 mps 665 mmHg 77%
13:00 +14°C° 0.1 mm 6 mps 665 mmHg 76%
14:00 +14°C° 0.1 mm 6 mps 665 mmHg 76%
15:00 +14°C° 0.1 mm 6 mps 665 mmHg 75%
16:00 +14°C° 0.1 mm 6 mps 665 mmHg 75%
17:00 +14°C° 0 mm 6 mps 665 mmHg 80%
18:00 +13°C° 0 mm 5 mps 665 mmHg 84%
19:00 +12°C° 0 mm 4 mps 664 mmHg 88%
20:00 +12°C° 0 mm 4 mps 665 mmHg 89%
21:00 +12°C° 0 mm 4 mps 665 mmHg 89%
22:00 +12°C° 0 mm 4 mps 665 mmHg 90%
23:00 +12°C° 0 mm 4 mps 665 mmHg 89%

3 October, Saturday

Time Temperature Precipitation Wind Pressure Humidity
00:00 +12°C° 0 mm 5 mps 665 mmHg 89%
01:00 +12°C° 0 mm 5 mps 665 mmHg 89%
02:00 +12°C° 0 mm 4 mps 664 mmHg 88%
03:00 +12°C° 0 mm 4 mps 664 mmHg 88%
04:00 +12°C° 0 mm 4 mps 664 mmHg 87%
05:00 +12°C° 0.2 mm 3 mps 664 mmHg 85%
06:00 +11°C° 0.2 mm 3 mps 664 mmHg 83%
07:00 +11°C° 0.2 mm 3 mps 664 mmHg 81%
08:00 +12°C° 1.9 mm 4 mps 664 mmHg 82%
09:00 +13°C° 1.9 mm 5 mps 664 mmHg 84%
10:00 +14°C° 1.9 mm 5 mps 664 mmHg 85%
11:00 +14°C° 2.7 mm 6 mps 665 mmHg 86%
12:00 +15°C° 2.7 mm 6 mps 665 mmHg 87%
13:00 +15°C° 2.7 mm 6 mps 665 mmHg 88%
14:00 +15°C° 2.1 mm 5 mps 665 mmHg 88%
15:00 +15°C° 2.1 mm 4 mps 665 mmHg 88%
16:00 +14°C° 2.1 mm 3 mps 665 mmHg 89%
17:00 +13°C° 0.4 mm 3 mps 665 mmHg 90%
18:00 +13°C° 0.4 mm 2 mps 665 mmHg 92%
19:00 +12°C° 0.4 mm 2 mps 665 mmHg 94%
20:00 +12°C° 0.2 mm 2 mps 665 mmHg 94%
21:00 +11°C° 0.2 mm 1 mps 665 mmHg 94%
22:00 +11°C° 0.2 mm 1 mps 666 mmHg 94%
23:00 +11°C° 0.1 mm 1 mps 666 mmHg 93%
Show more